TimeEST,TemperatureF,Dew PointF,Humidity,Sea Level PressureIn,VisibilityMPH,Wind Direction,Wind SpeedMPH,Gust SpeedMPH,PrecipitationIn,Events,Conditions,WindDirDegrees,DateUTC
12:14 AM,41.0,37.0,86,29.47,10.0,Variable,6.9,-,N/A,,Overcast,0,2013-11-28 05:14:00
12:34 AM,39.9,37.0,89,29.48,10.0,West,6.9,-,N/A,,Overcast,260,2013-11-28 05:34:00
12:52 AM,39.9,36.0,86,29.51,10.0,West,12.7,21.9,N/A,,Overcast,260,2013-11-28 05:52:00
1:48 AM,37.4,33.8,87,29.58,10.0,West,8.1,18.4,N/A,,Scattered Clouds,260,2013-11-28 06:48:00
1:52 AM,37.0,33.1,86,29.58,10.0,Variable,6.9,18.4,N/A,,Scattered Clouds,0,2013-11-28 06:52:00
2:52 AM,36.0,30.0,79,29.62,10.0,West,8.1,-,N/A,,Partly Cloudy,260,2013-11-28 07:52:00
3:52 AM,36.0,30.0,79,29.67,10.0,West,6.9,16.1,N/A,,Overcast,260,2013-11-28 08:52:00
4:52 AM,36.0,27.0,70,29.74,10.0,West,11.5,25.3,N/A,,Overcast,270,2013-11-28 09:52:00
5:52 AM,34.0,24.1,67,29.80,10.0,West,11.5,23.0,N/A,,Scattered Clouds,280,2013-11-28 10:52:00
6:52 AM,33.1,21.9,64,29.86,10.0,West,10.4,19.6,N/A,,Mostly Cloudy,280,2013-11-28 11:52:00
7:52 AM,33.1,19.9,59,29.93,10.0,West,13.8,26.5,N/A,,Scattered Clouds,270,2013-11-28 12:52:00
8:52 AM,34.0,19.9,56,29.98,10.0,West,16.1,29.9,N/A,,Clear,270,2013-11-28 13:52:00
9:52 AM,36.0,19.9,52,30.02,10.0,WNW,11.5,20.7,N/A,,Clear,290,2013-11-28 14:52:00
10:52 AM,36.0,17.1,46,30.04,10.0,West,17.3,28.8,N/A,,Clear,280,2013-11-28 15:52:00
11:52 AM,37.0,17.1,44,30.05,10.0,WNW,13.8,27.6,N/A,,Clear,300,2013-11-28 16:52:00
12:52 PM,37.0,17.1,44,30.08,10.0,WNW,12.7,21.9,N/A,,Clear,290,2013-11-28 17:52:00
1:52 PM,36.0,16.0,44,30.13,10.0,WNW,8.1,20.7,N/A,,Clear,290,2013-11-28 18:52:00
2:52 PM,35.1,12.9,40,30.19,10.0,WNW,8.1,21.9,N/A,,Clear,290,2013-11-28 19:52:00
3:52 PM,33.1,12.0,42,30.24,10.0,Variable,5.8,-,N/A,,Clear,0,2013-11-28 20:52:00
4:52 PM,30.0,12.0,47,30.28,10.0,Calm,Calm,-,N/A,,Clear,0,2013-11-28 21:52:00
5:52 PM,28.9,10.9,47,30.32,10.0,West,3.5,-,N/A,,Clear,270,2013-11-28 22:52:00
6:52 PM,28.0,10.9,49,30.36,10.0,WSW,3.5,-,N/A,,Clear,250,2013-11-28 23:52:00
7:52 PM,28.0,10.9,49,30.38,10.0,Variable,5.8,-,N/A,,Clear,0,2013-11-29 00:52:00
8:52 PM,28.0,10.9,49,30.40,10.0,West,5.8,-,N/A,,Clear,280,2013-11-29 01:52:00
9:52 PM,28.9,10.9,47,30.41,10.0,WNW,8.1,-,N/A,,Clear,300,2013-11-29 02:52:00
10:52 PM,28.9,10.9,47,30.43,10.0,WNW,6.9,-,N/A,,Clear,290,2013-11-29 03:52:00
11:52 PM,28.9,10.0,45,30.44,10.0,WNW,10.4,-,N/A,,Clear,300,2013-11-29 04:52:00